• Join FlightAware (Why Join?)
  • Login
  • US Flag 
09:07AM EST


 

Airport Tracker/Info


-or-


 

Live Flight TrackerFlight Track Log ✈ SWA2322 ✈ 14-Apr-2013 ✈ KCHS - KBWI

Flight Track Log - Related Links

Times and Time Zones

All times are in EDT time to prevent confusion due to time zone crossing. See the SWA2322 flight status page for this flight to view local times or setup timezone preferences in your user account.

Time Position Orientation Groundspeed Altitude Reporting Facility
EDT Latitude Longitude Course Direction KTS MPH feet Rate Location/Type
07:54AM 32.9708 -80.0156 North 219 252 3,400  Level Jacksonville Center
07:55AM 33.0353 -79.9986 12° North 238 274 5,700 3,000 Climbing Jacksonville Center
07:56AM 33.1142 -79.9761 13° North 258 297 9,400 3,840 Climbing Jacksonville Center
07:57AM 33.2069 -79.9333 21° North 305 351 13,400 3,300 Climbing Jacksonville Center
07:58AM 33.2908 -79.8658 34° Northeast 322 371 16,100 2,760 Climbing Jacksonville Center
07:59AM 33.4399 -79.8687 North  Level FlightAware Approximate
07:59AM 33.3831 -79.7956 32° Northeast 364 419 19,000  Level Jacksonville Center
08:00AM 33.4814 -79.7175 34° Northeast 393 452 21,900 2,700 Climbing Jacksonville Center
08:01AM 33.5794 -79.6392 34° Northeast 413 475 24,500 2,100 Climbing Jacksonville Center
08:02AM 33.6839 -79.5556 34° Northeast 424 488 26,200 1,560 Climbing Jacksonville Center
08:03AM 33.7961 -79.4664 33° Northeast 454 522 27,700 1,620 Climbing Jacksonville Center
08:04AM 33.8983 -79.3872 33° Northeast 468 539 29,500 2,100 Climbing Jacksonville Center
08:05AM 34.0147 -79.2950 33° Northeast 480 552 31,900 1,860 Climbing Jacksonville Center
08:07AM 34.3008 -79.0611 34° Northeast 520 598 36,000 1,320 Climbing Washington Center
08:08AM 34.4269 -78.9608 33° Northeast 508 585 36,700 480 Climbing Washington Center
08:09AM 34.5294 -78.8742 35° Northeast 497 572 37,000 120 Climbing Washington Center
08:10AM 34.6447 -78.7803 34° Northeast 497 572 37,000  Level Washington Center
08:11AM 34.7619 -78.6864 33° Northeast 497 572 37,000  Level Washington Center
08:12AM 34.8706 -78.5969 34° Northeast 491 565 37,000  Level Washington Center
08:13AM 34.9836 -78.5022 34° Northeast 491 565 37,000  Level Washington Center
08:14AM 35.0964 -78.4097 34° Northeast 491 565 37,000  Level Washington Center
08:15AM 35.2069 -78.3144 35° Northeast 491 565 37,000  Level Washington Center
08:16AM 35.3275 -78.2525 23° Northeast 481 554 37,000  Level Washington Center
08:17AM 35.4494 -78.2056 17° North 456 525 37,000  Level Washington Center
08:18AM 35.5714 -78.1636 16° North 456 525 37,000  Level Washington Center
08:19AM 35.6933 -78.1136 18° North 456 525 37,000  Level Washington Center
08:20AM 35.8261 -78.0564 19° North 456 525 37,000  Level Washington Center
08:21AM 35.9461 -78.0064 19° North 456 525 37,000 -1,260 Level Washington Center
08:22AM 36.0703 -77.9536 19° North 456 525 34,500 -2,760 Descending Washington Center
08:23AM 36.1944 -77.8981 20° North 456 525 31,500 -2,640 Descending Washington Center
08:24AM 36.3142 -77.8475 19° North 461 531 29,300 -1,260 Descending Washington Center
08:25AM 36.4047 -77.8061 20° North 450 518 29,000 -180 Descending Washington Center
08:26AM 36.5281 -77.7889 North 380 437 29,000  Level Washington Center
08:27AM 36.6236 -77.8175 346° North 355 409 29,000  Level Washington Center
08:28AM 36.7192 -77.8461 347° North 350 403 29,000 -240 Level Washington Center
08:29AM 36.8167 -77.8647 351° North 355 409 28,600 -540 Descending Washington Center
08:30AM 36.9181 -77.8053 25° Northeast 355 409 28,000 -720 Descending Washington Center
08:31AM 37.0156 -77.7247 33° Northeast 395 455 27,200 -540 Descending Washington Center
08:32AM 37.1192 -77.6392 33° Northeast 409 471 27,000 -120 Descending Washington Center
08:33AM 37.2228 -77.5533 33° Northeast 431 496 27,000 -60 Level Washington Center
08:34AM 37.3264 -77.4669 34° Northeast 442 509 26,900 -1,200 Descending Washington Center
08:35AM 37.4278 -77.3833 33° Northeast 442 509 24,700 -1,980 Descending Washington Center
08:36AM 37.5311 -77.3122 29° Northeast 442 509 23,000 -900 Descending Washington Center
08:37AM 37.6378 -77.2939 North 401 461 23,000  Level Washington Center
08:38AM 37.7444 -77.2700 10° North 388 447 23,000  Level Washington Center
08:39AM 37.8553 -77.2486 North 388 447 23,000  Level Washington Center
08:40AM 37.9619 -77.2275 North 388 447 23,000 -780 Level Washington Center
08:41AM 38.0686 -77.2033 10° North 388 447 21,500 -1,860 Descending Washington Center
08:42AM 38.1689 -77.1817 10° North 373 429 19,300 -1,980 Descending Washington Center
08:43AM 38.2672 -77.1625 North 368 423 17,600 -1,980 Descending Washington Center
08:44AM 38.3633 -77.1408 10° North 363 418 15,400 -1,800 Descending Washington Center
08:45AM 38.4436 -77.0628 37° Northeast 345 397 14,000 -1,680 Descending Washington Center
08:46AM 38.5114 -76.9767 45° Northeast 339 390 12,100 -1,500 Descending Washington Center
08:47AM 38.5831 -76.8956 41° Northeast 339 390 11,100 -960 Descending Washington Center
08:48AM 38.6444 -76.8144 46° Northeast 329 379 10,200 -1,020 Descending Washington Center
08:49AM 38.7036 -76.7408 44° Northeast 304 350 9,100 -1,200 Descending Washington Center
08:50AM 38.7461 -76.6564 57° Northeast 292 336 7,900 -1,320 Descending Washington Center
08:51AM 38.7667 -76.6000 65° Northeast 292 336 7,100 -1,320 Descending Potomac TRACON
08:52AM 38.8167 -76.5333 46° Northeast 277 319 5,900 -1,080 Descending Potomac TRACON
08:53AM 38.8833 -76.5333 360° North 257 296 5,100 -960 Descending Potomac TRACON
08:54AM 38.9500 -76.5500 349° North 255 293 4,100 -1,020 Descending Potomac TRACON
08:55AM 39.0167 -76.5667 349° North 238 274 3,200 -780 Descending Potomac TRACON
08:56AM 39.0667 -76.6000 333° Northwest 196 226 2,700 -840 Descending Potomac TRACON
08:57AM 39.1167 -76.6167 346° North 147 169 1,500 -960 Descending Potomac TRACON
08:58AM 39.1333 -76.6333 322° Northwest 126 145 800 -720 Descending Potomac TRACON
09:00AM 39.1667 -76.6667 339° North  Level FlightAware Approximate
09:07AM 39.1754 -76.6683 339° North  Level Estimated
09:08AM 39.1754 -76.6683 339° North  Level Estimated
09:09AM 39.1754 -76.6683 339° North  Level Estimated